Regional Weather Roundup
Issued by NWS

Home | Current Version | Previous Version | Text Only | Print | Product List | Glossary On
Versions: 1 2 3 4 5 6 7 8 9 10 11 12 13 14 15 16 17 18 19 20 21 22 23 24 25 26 27 28 29 30 31 32 33 34 35 36 37 38 39 40 41 42 43 44 45 46 47 48 49 50
000
ASUS42 KFFC 260310
RWRGA
WEATHER ROUNDUP FOR GEORGIA
NATIONAL WEATHER SERVICE PEACHTREE CITY GA
1100 PM EDT SUN JUN 25 2017

NOTE: "FAIR" INDICATES FEW OR NO CLOUDS BELOW 12,000 FEET WITH NO
SIGNIFICANT WEATHER AND/OR OBSTRUCTIONS TO VISIBILITY.

* = USE WITH CAUTION. THE STATIONS MARKED WITH AN ASTERISK MAY NOT
REPORT WEATHER SUCH AS PRECIPITATION, FOG, OR THUNDER AND ARE NOT
QUALITY CONTROLLED BY NWS.

THE REMARK "TC" DENOTES TEMPERATURE READING IN DEGREES CELSIUS.

GAZ001>058-260400-
NORTH GEORGIA

CITY           SKY/WX    TMP DP  RH WIND       PRES   REMARKS
ATLANTA        MOCLDY    69  61  75 NW10      30.16R
ATHENS         CLOUDY    70  64  81 VRB6      30.14R
CHAMBLEE       MOCLDY    70  59  68 N6        30.16R
PEACHTREE CITY CLOUDY    70  61  73 NW9       30.16S
ROME           CLEAR     66  65  96 CALM      30.17R
WEST ATLANTA   CLOUDY    69  63  81 NW5       30.16S
GAINESVILLE    PTCLDY    69  60  73 NW5       30.18R
CARTERSVILLE   PTCLDY    64  64 100 CALM      30.18R


CITY           SKY/WX    TMP DP  RH WIND       PRES   REMARKS
DALTON*        CLEAR     63  63 100 CALM      30.18S
MARIETTA       MOCLDY    68  62  80 NW6       30.17S
KENNESAW*      MOCLDY    68  63  83 CALM      30.16R
CANTON*        PTCLDY    66  66 100 CALM      30.19F
$$

GAZ059>098-102>109-260400-
CENTRAL GEORGIA

CITY           SKY/WX    TMP DP  RH WIND       PRES   REMARKS
AUGUSTA-BUSH   CLOUDY    80  74  81 CALM      30.08R
AUGUSTA-DANIEL CLOUDY    80  67  64 N10       30.10R
COLUMBUS       CLOUDY    74  57  55 N10       30.12R
MACON          CLOUDY    75  61  61 NW8       30.10S
ROBINS AFB     CLOUDY    74  65  73 NW3       30.10R


CITY           SKY/WX    TMP DP  RH WIND       PRES   REMARKS
LAGRANGE*      CLOUDY    71  60  67 N6        30.15F
SYLVANIA*      CLOUDY    76  76 100 CALM      30.09R
MILLEDGEVILLE* CLOUDY    75  64  69 N6        30.11S
$$

GAZ099>101-110>166-260400-
SOUTH GEORGIA

CITY           SKY/WX    TMP DP  RH WIND       PRES   REMARKS
SAVANNAH       CLOUDY    76  74  93 CALM      30.07R
VALDOSTA       CLOUDY    74  73  97 CALM      30.09S
ALMA           PTCLDY    75  73  93 W3        30.09R
ST SIMONS      CLOUDY    77  74  90 CALM      30.08R
FT STEWART     DRIZZLE   75  73  94 W3        30.05R
ALBANY         CLOUDY    76  75  97 CALM      30.12S
HUNTER AFB     MOCLDY    76  75  97 CALM      30.04R
MOODY AFB      CLOUDY    75  73  93 W3        30.09R
BRUNSWICK      CLOUDY    75  73  94 CALM      30.08S


CITY           SKY/WX    TMP DP  RH WIND       PRES   REMARKS
BAINBRIDGE*    CLOUDY    79  77  94 CALM      30.10S
MOULTRIE*      CLOUDY    73  72  94 CALM      30.10F
VIDALIA*       MOCLDY    77  73  88 SW5       30.09S
WAYCROSS*      PTCLDY    78  78 100 W3        30.08S
DOUGLAS*       CLOUDY    75  73  94 CALM      30.11R
$$



USA.gov is the U.S. government's official web portal to all federal, state and local government web resources and services.